sat.trackr.live / text

‹ back to catalog

SNAP-3 ALICE

NORAD 40970 · 2015-058G

PAYLOAD ACTIVE UNKNOWN

§ Identity

Operator
Country
US
Launch date
2015-10-08
Launch site
AFWTR
Launch vehicle
Mass (kg)
RCS (m²)

Purposes: tech_demo

External: N2YO · Heavens-Above · Gunter

§ Orbital elements

Epoch: 2026-05-25T04:27:15.801120Z

Period
92.61 min
Inclination
64.7513°
Eccentricity
0.0033681
Mean motion
15.54885569 rev/d
Perigee alt
379.6 km
Apogee alt
425.3 km
Semi-major
6,780.6 km
B*
1.1824e-3
RAAN
183.1204°
Arg perigee
23.5967°
Mean anomaly
336.6712°
Rev number
11,330

§ Raw data

SNAP-3 ALICE1 40970U 15058G   26145.18559955  .00082064  00000+0  11824-2 0  99912 40970  64.7513 183.1204 0033681  23.5967 336.6712 15.54885569113302

JSON: /api/v1/satellites/40970 · /tle

For live sub-satellite position, see the globe view (requires WebGL).

§ Visibility from observer

Set your observer location to see the next 7 days of passes ≥ 10°. The values pass through the URL so the page stays shareable.

No JS? Fill the form by hand. The geolocation button needs JavaScript.